AO-07 1 07530U 74089B 26168.63445769 -.00000045 00000-0 69834-5 0 9995 2 07530 101.9900 181.8858 0012581 129.2788 349.4194 12.53698122360574 UO-11 1 14781U 84021B 26168.82545792 .00000917 00000-0 98942-4 0 9994 2 14781 97.8058 134.3929 0007716 170.2168 189.9201 14.90784621257227 LO-19 1 20442U 90005G 26168.60057559 .00000080 00000-0 45223-4 0 9994 2 20442 98.8850 190.4176 0011141 199.8260 160.2493 14.34123292902459 AO-27 1 22825U 93061C 26168.76903799 .00000075 00000-0 45510-4 0 9992 2 22825 98.6881 236.1824 0009542 98.2958 261.9307 14.30942422707089 FO-29 1 24278U 96046B 26168.53292174 -.00000001 00000-0 31612-4 0 9993 2 24278 98.5239 17.3577 0350906 95.5376 268.5887 13.53274425473216 GO-32 1 25397U 98043D 26168.48584790 .00000035 00000-0 35404-4 0 9996 2 25397 99.0067 161.2520 0001080 161.9506 198.1711 14.24428440451374 ISS 1 25544U 98067A 26168.83452610 .00010577 00000-0 19787-3 0 9997 2 25544 51.6335 296.8886 0004753 198.5228 161.5588 15.49287853571858 NO-44 1 26931U 01043C 26168.50854178 .00000074 00000-0 58672-4 0 9993 2 26931 67.0505 243.4407 0006079 264.6457 95.3952 14.31956189290490 SO-50 1 27607U 02058C 26168.49245842 .00000788 00000-0 11042-3 0 9992 2 27607 64.5510 128.0407 0075265 262.4185 96.8368 14.83047547264500 CO-55 1 27844U 03031E 26168.52891236 .00000222 00000-0 11503-3 0 9990 2 27844 98.6736 177.0834 0009564 176.9717 183.1521 14.24335893191721 RS-22 1 27939U 03042A 26168.89977682 .00001104 00000-0 17830-3 0 9996 2 27939 98.3463 353.2784 0009917 267.3973 199.2972 14.73469414215651 CO-65 1 32785U 08021C 26168.84539091 .00004178 00000-0 26495-3 0 9997 2 32785 97.8273 150.2775 0009682 36.8375 323.3517 15.09456181985294 CO-66 1 32791U 08021J 26168.52727106 .00014659 00000-0 46558-3 0 9992 2 32791 97.7515 166.4411 0001013 2.1401 357.9844 15.32761121987344 RS-30 1 32953U 08025A 26168.90324288 -.00000014 00000-0 -17065-3 0 9995 2 32953 82.5036 354.9945 0018831 312.2719 47.6763 12.43179340819783 SRMSAT 1 37841U 11058D 26168.08915448 .00000356 00000-0 49079-4 0 9997 2 37841 19.9723 60.0600 0011791 202.5356 269.2197 14.11575544757800 ZACUBE-1 1 39417U 13066B 26168.80721939 .00002437 00000-0 19168-3 0 9996 2 39417 97.8078 131.1473 0040884 245.5707 114.1249 15.01191740680824 Delfi-N3xt 1 39428U 13066N 26168.78028260 .00004230 00000-0 37116-3 0 9998 2 39428 97.8336 89.0911 0073730 203.5978 156.1854 14.95082435674712 GOMX-1 1 39430U 13066Q 26168.79880542 .00001567 00000-0 23977-3 0 9991 2 39430 97.6475 9.2230 0130175 75.5802 285.9811 14.69462510670004 LO-74 1 39440U 13066AA 26168.80003132 .00004032 00000-0 37357-3 0 9993 2 39440 97.8909 117.7807 0058350 27.1118 333.3127 14.93766530677080 AO-73 1 39444U 13066AE 26168.45428207 .00005112 00000-0 31861-3 0 9996 2 39444 97.8279 139.9057 0035653 199.8844 160.0997 15.09493115679706 DTUSAT-2 1 40030U 14033W 26168.50209387 .00004992 00000-0 27109-3 0 9991 2 40030 98.0862 166.2491 0006656 223.9036 136.1666 15.15020285652730 LILACSAT-2 1 40908U 15049K 26168.85274291 .00014376 00000-0 24503-3 0 9999 2 40908 97.4639 205.7197 0005534 241.6012 118.4682 15.51463550595852 Horyu-4 1 41340U 16012D 26166.43547623 .00392649 54783-4 97992-3 0 9990 2 41340 30.9849 91.8834 0005149 261.3375 98.6703 15.94546005570538 Lapan A3 1 41603U 16040E 26168.84385083 .00002824 00000-0 90496-4 0 9995 2 41603 97.1488 164.9678 0010828 23.6658 336.5081 15.33108174554916 CAS-2T 1 41847U 16066G 26168.79471087 .00001433 00000-0 20773-3 0 9992 2 41847 98.3822 244.5241 0342813 127.6417 235.6409 14.44696391504880 TechnoSat 1 42829U 17042E 26168.44873474 .00003130 00000-0 22414-3 0 9996 2 42829 97.4288 326.0959 0018968 93.3985 266.9412 15.04963189486743 AO-91 1 43017U 17073E 26168.60486874 .00005679 00000-0 24962-3 0 9992 2 43017 97.4696 35.8108 0149538 327.7970 31.4193 15.12722439465459 S-Net D 1 43186U 18014G 26168.79175731 .00003959 00000-0 20549-3 0 9998 2 43186 97.5361 73.5787 0008883 28.6350 331.5369 15.16678644458851 S-Net B 1 43187U 18014H 26168.80322317 .00004210 00000-0 21848-3 0 9999 2 43187 97.5366 73.5769 0009388 23.3551 336.8107 15.16648511458851 S-Net A 1 43188U 18014J 26168.65868169 .00003875 00000-0 20114-3 0 9994 2 43188 97.5378 73.6419 0009280 24.6066 335.5608 15.16685227458839 S-Net C 1 43189U 18014K 26168.80710227 .00004375 00000-0 22689-3 0 9998 2 43189 97.5396 73.8643 0010377 15.6904 344.4648 15.16640692457403 Ten-Koh 1 43677U 18084G 26168.52315520 .00001544 00000-0 11979-3 0 9998 2 43677 98.0772 0.9010 0011561 113.1889 247.0554 15.02944490416216 PO-101 1 43678U 18084H 26168.83675285 .00002241 00000-0 18304-3 0 9994 2 43678 98.1177 5.0732 0012506 167.9644 192.1880 15.00455475416311 QO-100 1 43700U 18090A 26168.80827088 .00000139 00000-0 00000 0 0 9998 2 43700 0.0175 15.7240 0001649 108.2888 98.7998 1.00270986 27689 MinXSS-2 1 43758U 18099A 26168.73865559 .00029718 00000-0 59008-3 0 9997 2 43758 97.4532 245.0393 0006634 252.2140 107.8386 15.46928292414213 AO-95 1 43770U 18099N 26168.40539693 .00008770 00000-0 33623-3 0 9992 2 43770 97.4379 228.6506 0007952 357.1065 3.0126 15.26715554413259 SNUSat 2 1 43782U 18099AA 26168.66206763 .00006004 00000-0 26699-3 0 9995 2 43782 97.4054 222.0387 0008585 296.5021 63.5334 15.21844090413107 SnugLite 1 43784U 18099AC 26168.66785703 .00009168 00000-0 34663-3 0 9997 2 43784 97.3862 222.9431 0001206 287.0263 73.0844 15.27188145413391 ITASat 1 1 43786U 18099AE 26168.61452307 .00005652 00000-0 27237-3 0 9998 2 43786 97.4024 220.1177 0012039 358.8132 1.3072 15.19062139412974 EAGLET 1 1 43790U 18099AJ 26168.64806279 .00002706 00000-0 15702-3 0 9998 2 43790 97.4227 218.3046 0010619 352.9170 7.1910 15.12942431412405 ESEO 1 43792U 18099AL 26168.64596791 .00001685 00000-0 12520-3 0 9995 2 43792 97.3975 206.0143 0011259 338.4959 21.5793 15.04249787411877 JO-97 1 43803U 18099AX 26168.16099664 .00012621 00000-0 39004-3 0 9990 2 43803 97.4126 230.9950 0004332 262.3288 97.7462 15.33652151413623 Suomi 100 1 43804U 18099AY 26168.73001218 .00009773 00000-0 35543-3 0 9990 2 43804 97.4180 229.1213 0008368 276.6398 83.3889 15.28425014413500 ISAT 1 43879U 18111D 26168.80148904 .00082225 00000-0 82021-3 0 9995 2 43879 97.5886 104.0698 0001064 148.9986 211.1336 15.65390296411267 UWE-4 1 43880U 18111E 26168.79759647 .00027737 00000-0 56593-3 0 9999 2 43880 97.5854 97.2166 0005426 339.8201 20.2832 15.46158858410875 Sparrow 1 43881U 18111F 26168.83018448 .00136990 00000-0 92678-3 0 9998 2 43881 97.6120 109.7297 0004445 113.5899 246.5832 15.74617867411478 Prox-1 1 44339U 19036A 26168.19115727 .00010269 00000-0 99479-3 0 9997 2 44339 23.9926 114.2231 0005754 36.9692 323.1203 14.90607207373470 Taurus 1 1 44530U 19059C 26168.85450019 .00003906 00000-0 62938-3 0 9994 2 44530 98.6416 333.7233 0007355 313.7664 46.2932 14.72100320358749 TO-108 1 44881U 19093C 26168.85250294 .00000386 00000-0 49559-4 0 9998 2 44881 97.7536 241.0683 0015116 84.7597 275.5344 14.86520130351517 RS-44 1 44909U 19096E 26168.55246389 .00000013 00000-0 73756-6 0 9994 2 44909 82.5218 339.4621 0218184 143.3147 218.3119 12.79748854302396 SALSAT 1 46495U 20068K 26168.53797512 .00006219 00000-0 21821-3 0 9991 2 46495 97.8847 171.6239 0008040 306.6544 53.3955 15.29803905315418 CSS (TIANHE-1) 1 48274U 21035A 26168.80884711 .00020611 00000-0 24305-3 0 9993 2 48274 41.4699 318.2185 0007413 82.3362 277.8318 15.60835747293261 CUTE 1 49263U 21088D 26167.87351093 .00142724 98108-5 41038-3 0 9991 2 49263 97.4164 267.1367 0007725 230.0922 129.9674 15.93099789262501 TeikyoSat 4 1 49396U 21102B 26168.65096466 .00001308 00000-0 85327-4 0 9993 2 49396 97.3671 198.1165 0010453 295.0163 64.9981 15.09509390252799 Z-Sat 1 49399U 21102E 26168.85705704 .00001729 00000-0 87453-4 0 9999 2 49399 97.3314 204.1600 0014960 242.3466 117.6250 15.18263731253541 KOSEN 1 1 49402U 21102H 26168.07610474 .00005879 00000-0 22522-3 0 9992 2 49402 97.3179 210.2355 0013179 200.7965 159.2740 15.26833489254003 HO-113 1 50466U 21131B 26168.88764174 .00000308 00000-0 10879-3 0 9996 2 50466 98.4987 261.2735 0005391 95.1408 265.0396 14.41357716235212 SNUGLITE 2 1 52899U 22065F 26168.37269579 .00000751 00000-0 15131-3 0 9996 2 52899 98.2202 313.2028 0007995 32.5324 327.6370 14.64347943211025 UmKA 1 (RS40S) 1 57172U 23091G 26168.81767476 .00004827 00000-0 22142-3 0 9991 2 57172 97.5047 227.5124 0014251 115.6540 244.6169 15.20824752164104 CubeBel-2 (EU11S) 1 57175U 23091K 26168.83821563 .00010647 00000-0 37802-3 0 9990 2 57175 97.5049 232.0610 0011296 112.6593 247.5842 15.29166036164407 RS-38S 1 57189U 23091Z 26168.79906593 .00014290 00000-0 40875-3 0 9999 2 57189 97.5090 238.2965 0008220 75.8337 284.3820 15.36043394164783 SONATE-2 1 59112U 24043Q 26168.39510587 .00033446 00000-0 43430-3 0 9999 2 59112 97.5537 318.8032 0007055 194.9241 165.1808 15.58731492127923 GRBBeta 1 60237U 24128C 26168.48551437 .00002424 00000-0 17435-3 0 9990 2 60237 61.9882 215.2195 0040618 134.7304 225.7108 15.06640908106315 Curium One 1 60242U 24128H 26168.43454753 .00005105 00000-0 29902-3 0 9995 2 60242 61.9765 204.8991 0039710 130.9174 229.5371 15.12513628106491 ROBUSTA-3A 1 60243U 24128J 26168.59788154 .00004093 00000-0 24768-3 0 9998 2 60243 61.9845 206.7918 0041354 128.0239 232.4601 15.11679517106485 CatSat 1 60246U 24125J 26168.52493713 .00048732 00000-0 62548-3 0 9991 2 60246 97.2081 21.0293 0022411 178.1679 181.9664 15.58682302107444 HYPERVIEW-1G (RS66S) 1 61772U 24199AP 26168.69760617 .00118174 00000-0 75647-3 0 9997 2 61772 97.2862 48.4424 0003879 216.3967 143.7035 15.75954968134758 AO-123 1 61781U 24199AY 26168.81659731 .00006195 00000-0 18047-3 0 9995 2 61781 97.2994 37.4816 0012254 311.6009 48.4184 15.35683035134026 JINJUSat 1B 1 63210U 25052A 26167.68917839 .00012762 00000-0 39628-3 0 9998 2 63210 97.4007 64.4436 0005487 91.7275 268.4596 15.33490602 70025 NUSHSAT 1 1 63211U 25052B 26168.64574124 .00016808 00000-0 48134-3 0 9999 2 63211 97.3980 65.9687 0005209 92.5386 267.6455 15.35986793 70212 TEVEL2-4 1 63213U 25052D 26167.98658141 .00016047 00000-0 48034-3 0 9993 2 63213 97.3904 64.3780 0004860 103.4475 256.7310 15.34605865 70081 TEVEL2-5 1 63214U 25052E 26168.65918476 .00015137 00000-0 45551-3 0 9999 2 63214 97.3899 64.9994 0004810 103.5179 256.6600 15.34451661 70180 TEVEL2-6 1 63215U 25052F 26168.67152683 .00015165 00000-0 45683-3 0 9999 2 63215 97.3904 64.9959 0004737 104.1466 256.0303 15.34416475 70181 TEVEL2-1 1 63217U 25052H 26167.98311732 .00015254 00000-0 46759-3 0 9990 2 63217 97.3878 63.9315 0004776 114.0246 246.1497 15.33862790 70062 TEVEL2-3 1 63218U 25052J 26168.63011128 .00014014 00000-0 42884-3 0 9998 2 63218 97.3880 64.6004 0004756 112.8616 247.3129 15.33936150 70162 TEVEL2-2 1 63219U 25052K 26167.65724747 .00014434 00000-0 44263-3 0 9997 2 63219 97.3883 63.6082 0004715 115.1533 245.0199 15.33861744 70012 TEVEL2-9 1 63237U 25052AD 26168.67911600 .00012696 00000-0 41401-3 0 9995 2 63237 97.3939 64.0040 0007848 129.4733 230.7203 15.31910165 70100 TEVEL2-7 1 63238U 25052AE 26168.65478595 .00013228 00000-0 43519-3 0 9999 2 63238 97.3940 63.8957 0007915 129.8998 230.2940 15.31613826 70094 TEVEL2-8 1 63239U 25052AF 26168.66304257 .00012825 00000-0 42222-3 0 9996 2 63239 97.3941 63.8807 0007934 130.2742 229.9195 15.31597535 70099 SPIRONE 1 66657U 25274H 26168.79092985 .00001479 00000-0 14558-3 0 9999 2 66657 97.7481 98.0734 0012629 19.8024 340.3684 14.93546421 30317 K-HERO 1 66660U 25274L 26168.79535595 .00001485 00000-0 14454-3 0 9994 2 66660 97.7486 98.2392 0014585 22.8548 337.3318 14.93963632 30324 SNUGLITE-III DURI 1 66661U 25274M 26168.78311367 .00001063 00000-0 10487-3 0 9997 2 66661 97.7486 98.2477 0015255 23.5705 336.6211 14.94003283 30329 SAKHACUBE-CHOLBON 1 67290U 25313AU 26168.16026920 .00007482 00000-0 30339-3 0 9999 2 67290 97.3933 243.1952 0008835 5.5114 354.6219 15.24887309 25976 RS95S (QMR-KWT-2) 1 67291U 25313AV 26168.73860176 .00010829 00000-0 41953-3 0 9995 2 67291 97.3929 243.9430 0008139 1.1572 358.9684 15.26305791 26075 Ten-Koh2 1 68261U 25241B 26166.70419506 .00005304 00000-0 23027-3 0 9999 2 68261 51.6697 326.6857 0006067 137.6687 222.4761 15.23889978 14686 JACK-002 1 68417U 26067B 26168.82002185 .00005616 00000-0 26850-3 0 9998 2 68417 97.4573 127.4028 0000115 15.6543 344.4695 15.19401106 12048 DISCO 2 1 68431U 26067R 26168.64371182 .00006911 00000-0 33268-3 0 9990 2 68431 97.4604 127.2171 0002755 43.3221 316.8229 15.19078411 12011 HADES-SA (SpinnyONE) 1 68446U 26067AG 26168.81466387 .00015192 00000-0 72585-3 0 9993 2 68446 97.4412 127.1017 0009479 80.5159 279.7146 15.19078969 12029 PARUS-6U1 1 68456U 26067AS 26168.78189507 .00004669 00000-0 23602-3 0 9999 2 68456 97.4556 127.1361 0007442 70.3354 289.8682 15.17521639 12025 SAL-E 1 68458U 26067AU 26167.85423580 .00006039 00000-0 30219-3 0 9995 2 68458 97.4480 126.1591 0007935 80.0139 280.1989 15.17751005 11882 FSI-SAT 2 1 68792U 26088A 26168.35216728 .00003649 00000-0 24820-3 0 9994 2 68792 97.5076 317.6067 0015882 106.1964 254.1012 15.06838956 8317 OrigamiSat 2 1 68795U 26088D 26168.36115720 .00010025 00000-0 64028-3 0 9998 2 68795 97.5077 317.7519 0016101 80.7087 279.5962 15.08740652 8325 ARICA 2 1 68796U 26088E 26168.36045805 .00003949 00000-0 25690-3 0 9994 2 68796 97.5065 317.7412 0016981 79.7449 280.5694 15.08429631 8326 WASEDA-SAT-ZERO-II 1 68797U 26088F 26168.35614948 .00005154 00000-0 33211-3 0 9992 2 68797 97.5067 317.7453 0016754 79.8298 280.4819 15.08645741 8325 MANGARO-II-Piscus 1 68798U 26088G 26168.34658521 .00003112 00000-0 20105-3 0 9997 2 68798 97.5076 317.7655 0020602 81.9811 278.3755 15.08787723 8324 IO-86 1 40931U 25360.30710720 .00000000 00000-0 12800-3 0 00 2 40931 6.0006 332.5373 0012733 338.8432 8.1437 14.79075515 01 LILIUM-4 1 71922C 26067AC 26089.50133053 -.00014632 00000 0 -74472-3 0 04 2 71922 97.4497 49.1617 0004341 5.9603 355.7042 15.16896692 16